When you browse on this site, cookies collect data to enhance your experience and personalize the content and advertising you see.
Visit our Privacy Policy to learn more. By continuing to use the site, you agree to this use of cookies and data.
  • In France
  • List of Countries
  • For 7 days
  • Water Temperature
  • Satellite Maps
  • Weather Map
  • Weather Widgets
  • user-avatar
    Login

    Hourly Weather Bregenz

    Today, 19 April, Friday

    Time Temperature Precipitation Wind Pressure Humidity
    00:00 +2°C° 0 mm 3 mps 651 mmHg 74%
    01:00 +2°C° 0 mm 3 mps 651 mmHg 74%
    02:00 +1°C° 0 mm 3 mps 651 mmHg 75%
    03:00 +2°C° 0 mm 2 mps 651 mmHg 75%
    04:00 +2°C° 0 mm 2 mps 651 mmHg 76%
    05:00 +3°C° 0 mm 2 mps 652 mmHg 74%
    06:00 +3°C° 0 mm 2 mps 652 mmHg 72%
    07:00 +4°C° 0 mm 2 mps 652 mmHg 71%
    08:00 +7°C° 0 mm 2 mps 653 mmHg 63%
    09:00 +10°C° 0 mm 1 mps 654 mmHg 55%
    10:00 +13°C° 0 mm 1 mps 654 mmHg 47%
    11:00 +14°C° 0 mm 1 mps 655 mmHg 44%
    12:00 +16°C° 0 mm 1 mps 655 mmHg 41%
    13:00 +18°C° 0 mm 1 mps 655 mmHg 39%
    14:00 +16°C° 0 mm 1 mps 655 mmHg 40%
    15:00 +16°C° 0 mm 1 mps 655 mmHg 41%
    16:00 +15°C° 0 mm 2 mps 654 mmHg 43%
    17:00 +13°C° 0.1 mm 2 mps 654 mmHg 52%
    18:00 +10°C° 0.1 mm 2 mps 653 mmHg 62%
    19:00 +8°C° 0.1 mm 2 mps 653 mmHg 72%
    20:00 +7°C° 0 mm 2 mps 653 mmHg 73%
    21:00 +5°C° 0 mm 2 mps 653 mmHg 74%
    22:00 +4°C° 0 mm 2 mps 653 mmHg 76%
    23:00 +4°C° 0 mm 2 mps 653 mmHg 75%

    Tomorrow, 20 April, Saturday

    Time Temperature Precipitation Wind Pressure Humidity
    00:00 +3°C° 0 mm 2 mps 653 mmHg 74%
    01:00 +3°C° 0 mm 2 mps 653 mmHg 73%
    02:00 +3°C° 0 mm 2 mps 652 mmHg 73%
    03:00 +2°C° 0 mm 2 mps 652 mmHg 73%
    04:00 +2°C° 0 mm 2 mps 652 mmHg 73%
    05:00 +3°C° 0 mm 2 mps 652 mmHg 70%
    06:00 +3°C° 0 mm 2 mps 652 mmHg 67%
    07:00 +4°C° 0 mm 2 mps 652 mmHg 64%
    08:00 +8°C° 0 mm 1 mps 653 mmHg 55%
    09:00 +11°C° 0 mm 1 mps 653 mmHg 47%
    10:00 +14°C° 0 mm 1 mps 654 mmHg 39%
    11:00 +15°C° 0 mm 1 mps 654 mmHg 37%
    12:00 +16°C° 0 mm 1 mps 654 mmHg 35%
    13:00 +17°C° 0 mm 2 mps 654 mmHg 33%
    14:00 +16°C° 0 mm 2 mps 654 mmHg 35%
    15:00 +16°C° 0 mm 2 mps 653 mmHg 37%
    16:00 +16°C° 0 mm 2 mps 653 mmHg 39%
    17:00 +14°C° 0 mm 2 mps 652 mmHg 50%
    18:00 +10°C° 0 mm 2 mps 651 mmHg 61%
    19:00 +8°C° 0 mm 2 mps 651 mmHg 73%
    20:00 +7°C° 0 mm 2 mps 651 mmHg 72%
    21:00 +6°C° 0 mm 2 mps 650 mmHg 71%
    22:00 +5°C° 0 mm 2 mps 650 mmHg 70%
    23:00 +4°C° 0 mm 2 mps 650 mmHg 69%

    Day after tomorrow, 21 April, Sunday

    Time Temperature Precipitation Wind Pressure Humidity
    00:00 +4°C° 0 mm 2 mps 650 mmHg 67%
    01:00 +3°C° 0 mm 2 mps 650 mmHg 66%
    02:00 +3°C° 0 mm 2 mps 649 mmHg 68%
    03:00 +3°C° 0 mm 2 mps 649 mmHg 70%
    04:00 +2°C° 0 mm 2 mps 648 mmHg 72%
    05:00 +3°C° 0 mm 2 mps 648 mmHg 70%
    06:00 +5°C° 0 mm 1 mps 648 mmHg 69%
    07:00 +6°C° 0 mm 1 mps 648 mmHg 67%
    08:00 +8°C° 0 mm 1 mps 649 mmHg 60%
    09:00 +11°C° 0 mm 1 mps 649 mmHg 52%
    10:00 +14°C° 0 mm 1 mps 649 mmHg 45%
    11:00 +15°C° 0 mm 1 mps 649 mmHg 42%
    12:00 +16°C° 0 mm 1 mps 649 mmHg 39%
    13:00 +17°C° 0 mm 2 mps 649 mmHg 36%
    14:00 +16°C° 0 mm 2 mps 648 mmHg 37%
    15:00 +16°C° 0 mm 2 mps 648 mmHg 38%
    16:00 +16°C° 0 mm 3 mps 648 mmHg 39%
    17:00 +14°C° 0 mm 2 mps 647 mmHg 50%
    18:00 +12°C° 0 mm 2 mps 646 mmHg 62%
    19:00 +8°C° 0 mm 2 mps 645 mmHg 73%
    20:00 +8°C° 0 mm 2 mps 645 mmHg 72%
    21:00 +7°C° 0 mm 2 mps 645 mmHg 72%
    22:00 +6°C° 0 mm 2 mps 645 mmHg 71%
    23:00 +6°C° 0 mm 2 mps 645 mmHg 70%

    22 April, Monday

    Time Temperature Precipitation Wind Pressure Humidity
    00:00 +6°C° 0 mm 2 mps 645 mmHg 70%
    01:00 +6°C° 0 mm 2 mps 645 mmHg 69%
    02:00 +5°C° 0 mm 2 mps 644 mmHg 70%
    03:00 +5°C° 0 mm 2 mps 644 mmHg 71%
    04:00 +5°C° 0 mm 2 mps 644 mmHg 73%
    05:00 +5°C° 0 mm 2 mps 644 mmHg 71%
    06:00 +5°C° 0 mm 2 mps 643 mmHg 70%
    07:00 +6°C° 0 mm 2 mps 643 mmHg 68%
    08:00 +9°C° 0 mm 1 mps 644 mmHg 60%
    09:00 +12°C° 0 mm 1 mps 644 mmHg 52%
    10:00 +14°C° 0 mm 1 mps 644 mmHg 43%
    11:00 +15°C° 0 mm 1 mps 644 mmHg 41%
    12:00 +16°C° 0 mm 1 mps 644 mmHg 38%
    13:00 +17°C° 0 mm 2 mps 643 mmHg 36%
    14:00 +17°C° 0 mm 2 mps 643 mmHg 38%
    15:00 +16°C° 0 mm 2 mps 642 mmHg 40%
    16:00 +15°C° 0 mm 2 mps 641 mmHg 42%
    17:00 +13°C° 0 mm 2 mps 640 mmHg 51%
    18:00 +12°C° 0 mm 2 mps 640 mmHg 59%
    19:00 +9°C° 0 mm 2 mps 639 mmHg 68%
    20:00 +8°C° 0 mm 2 mps 639 mmHg 68%
    21:00 +7°C° 0 mm 2 mps 639 mmHg 68%
    22:00 +4°C° 0 mm 3 mps 638 mmHg 68%
    23:00 +5°C° 0 mm 2 mps 638 mmHg 68%

    23 April, Tuesday

    Time Temperature Precipitation Wind Pressure Humidity
    00:00 +5°C° 0 mm 2 mps 638 mmHg 68%
    01:00 +5°C° 0 mm 2 mps 637 mmHg 68%
    02:00 +5°C° 0 mm 2 mps 637 mmHg 69%
    03:00 +4°C° 0 mm 2 mps 637 mmHg 70%
    04:00 +4°C° 0 mm 2 mps 636 mmHg 71%
    05:00 +6°C° 0 mm 1 mps 636 mmHg 70%
    06:00 +7°C° 0 mm 1 mps 636 mmHg 70%
    07:00 +8°C° 0 mm 1 mps 636 mmHg 70%
    08:00 +10°C° 0 mm 1 mps 637 mmHg 63%
    09:00 +11°C° 0 mm 0 mps 638 mmHg 57%
    10:00 +13°C° 0 mm 0 mps 638 mmHg 50%
    11:00 +14°C° 0 mm 0 mps 638 mmHg 49%
    12:00 +15°C° 0 mm 1 mps 638 mmHg 48%
    13:00 +16°C° 0 mm 1 mps 638 mmHg 47%
    14:00 +15°C° 0.1 mm 1 mps 638 mmHg 53%
    15:00 +14°C° 0.1 mm 1 mps 638 mmHg 58%
    16:00 +12°C° 0.1 mm 0 mps 638 mmHg 63%
    17:00 +11°C° 0.1 mm 0 mps 638 mmHg 68%
    18:00 +10°C° 0.1 mm 0 mps 638 mmHg 74%
    19:00 +9°C° 0.1 mm 0 mps 638 mmHg 79%
    20:00 +9°C° 0 mm 1 mps 638 mmHg 79%
    21:00 +9°C° 0 mm 1 mps 639 mmHg 79%
    22:00 +7°C° 0 mm 2 mps 640 mmHg 79%
    23:00 +7°C° 0 mm 2 mps 640 mmHg 79%

    24 April, Wednesday

    Time Temperature Precipitation Wind Pressure Humidity
    00:00 +7°C° 0 mm 2 mps 640 mmHg 79%
    01:00 +6°C° 0 mm 2 mps 641 mmHg 79%
    02:00 +6°C° 0 mm 2 mps 641 mmHg 79%
    03:00 +6°C° 0 mm 2 mps 641 mmHg 80%
    04:00 +5°C° 0 mm 2 mps 641 mmHg 81%
    05:00 +6°C° 0 mm 2 mps 642 mmHg 79%
    06:00 +7°C° 0 mm 2 mps 642 mmHg 77%
    07:00 +7°C° 0 mm 2 mps 643 mmHg 75%
    08:00 +11°C° 0 mm 1 mps 644 mmHg 66%
    09:00 +14°C° 0 mm 1 mps 645 mmHg 56%
    10:00 +16°C° 0 mm 1 mps 645 mmHg 47%
    11:00 +18°C° 0 mm 1 mps 646 mmHg 45%
    12:00 +19°C° 0 mm 1 mps 646 mmHg 43%
    13:00 +20°C° 0 mm 1 mps 647 mmHg 40%
    14:00 +20°C° 0 mm 1 mps 646 mmHg 41%
    15:00 +19°C° 0 mm 2 mps 646 mmHg 42%
    16:00 +18°C° 0 mm 2 mps 646 mmHg 43%
    17:00 +16°C° 0 mm 2 mps 646 mmHg 51%
    18:00 +14°C° 0 mm 2 mps 645 mmHg 58%
    19:00 +12°C° 0 mm 2 mps 645 mmHg 66%
    20:00 +10°C° 0 mm 2 mps 645 mmHg 67%
    21:00 +9°C° 0 mm 3 mps 645 mmHg 67%
    22:00 +8°C° 0 mm 3 mps 645 mmHg 68%
    23:00 +7°C° 0 mm 3 mps 645 mmHg 69%
    Show more